Hourly Data Report for February 01, 2020

All times are specified in Local Standard Time (LST). Add 1 hour to adjust for Daylight Saving Time where and when it is observed.

OTTAWA INTL A
ONTARIO
Current Station Operator: NAVCAN

45°19'00.000" N
75°40'00.000" W
114.90 m
6106001
71628
YOW

Download Data

Hourly Data (February 2020)
Hourly Data Report for February 1, 2020
TIME Temp Definition
°C
Dew Point Definition
°C
Rel Hum Definition
%
Wind Dir Definition
10's deg

Wind Spd Definition
km/h
Visibility Definition
km
Stn Press Definition
kPa
Hmdx Definition


Wind Chill Definition


Weather Definition


00:00 -8.5 -9.8 91 21 4 6.4 100.66   -11 Snow
01:00 -9.0 -10.0 92 36 2 12.9 100.61   -10 Snow
02:00 -10.3 -11.6 90 36 3 12.9 100.55   -12 LegendNANA
03:00 -11.2 -12.5 90 0 1 12.9 100.48   -12 LegendNANA
04:00 -11.5 -12.8 90 36 2 4.8 100.45   -13 Fog
05:00 -10.6 -11.9 90 20 5 4.8 100.43   -14 Fog
06:00 -10.5 -11.8 90 13 5 4.8 100.39   -14 Snow,Fog
07:00 -10.6 -11.9 90 13 5 6.4 100.36   -14 Fog
08:00 -11.1 -12.7 89 6 5 4.8 100.36   -14 Fog
09:00 -11.0 -12.2 91 8 5 4.8 100.32   -14 Fog
10:00 -7.9 -9.0 92 12 4 6.4 100.26   -10 Fog
11:00 -6.5 -7.5 93 36 1 6.4 100.19   -7 Fog
12:00 -5.5 -6.5 93 12 6 8.1 100.05   -8 Fog
13:00 -4.4 -5.4 93 17 6 8.1 99.90   -7 Fog
14:00 -3.1 -6.1 80 18 9 16.1 99.80   -7 LegendNANA
15:00 -2.8 -6.0 79 36 1 12.9 99.73   -3 LegendNANA
16:00 -2.7 -6.1 78 11 8 16.1 99.61   -6 Mostly Cloudy
17:00 -4.1 -6.7 82 9 7 16.1 99.56   -7 LegendNANA
18:00 -4.8 -7.2 83 9 10 16.1 99.52   -9 LegendNANA
19:00 -6.6 -8.3 88 9 8 16.1 99.48   -10 Mainly Clear
20:00 -6.5 -7.9 90 8 8 12.9 99.46   -10 LegendNANA
21:00 -7.2 -8.3 92 8 9 8.1 99.39   -12 Fog
22:00 -7.5 -8.6 92 9 9 8.1 99.31   -12 Fog
23:00 -7.7 -8.9 91 11 11 8.1 99.22   -13 Fog

Notes on Data Quality.

Legend

  • E = Estimated
  • M = Missing
  • NA = Not Available*
  • [empty] = Indicates an unobserved value
Date modified: